Weather History for KARR - June, 2013

Change the Weather History Date:

Thursday, June 27, 2013

  Actual Average Record
Temperature  
Mean Temperature 76 °F 72 °F  
Max Temperature 88 °F 83 °F 95 °F (2005)
Min Temperature 63 °F 60 °F 50 °F (2004)
Degree Days  
Heating Degree Days 0 0  
Month to date heating degree days 44 40  
Since 1 June heating degree days 44 40  
Since 1 July heating degree days 6698 6774  
Cooling Degree Days 11 7  
Month to date cooling degree days 133 134  
Year to date cooling degree days 213 175  
Since 1 June cooling degree days 133 134  
Growing Degree Days 25 (Base 50)    
Moisture  
Dew Point 66 °F    
Average Humidity 74    
Maximum Humidity 100    
Minimum Humidity 48    
Precipitation  
Precipitation 0.00 in 0.09 in 0.56 in (2010)
Month to date precipitation 3.36 3.74  
Year to date precipitation 20.22 16.62  
Sea Level Pressure  
Sea Level Pressure 29.76 in    
Wind  
Wind Speed 9 mph (WNW)    
Max Wind Speed 23 mph    
Max Gust Speed 35 mph    
Visibility 6 miles    
Events Fog    
T = Trace of Precipitation, MM = Missing Value Source: NWS Daily Summary

Daily Weather History Graph

Daily Weather History Graph

Search for Another Location

Airport or City:

Trip Planner

Search our weather history database for the weather conditions in past years. The results will help you decide how hot, cold, wet, or windy it might be!

Date:

Astronomy

Jun. 27, 2013 Rise Set
Actual Time 5:21 AM CDT 8:32 PM CDT
Civil Twilight 4:46 AM CDT 9:06 PM CDT
Nautical Twilight 4:03 AM CDT 9:50 PM CDT
Astronomical Twilight 3:10 AM CDT 10:43 PM CDT
Moon 11:24 PM CDT (6/27) 10:26 AM CDT (6/27)
Length of Visible Light 16h 20m
Length of Day
15h 11m
Waning Gibbous, 76% of the Moon is Illuminated
Jun 27
Waning Gibbous
Jun 29
Last Quarter
Jul 8
New
Jul 15
First Quarter
Jul 22
Full

Hourly Weather History & Observations

Time (CDT) Temp. Heat Index Dew Point Humidity Pressure Visibility Wind Dir Wind Speed Gust Speed Precip Events Conditions
12:52 AM 68.0 °F - 66.9 °F 96% 29.77 in 6.0 mi Calm Calm - N/A   Clear
1:52 AM 64.9 °F - 64.9 °F 100% 29.78 in 3.0 mi Calm Calm - 0.01 in   Clear
2:05 AM 64.4 °F - 64.4 °F 100% 29.78 in 1.5 mi Calm Calm - N/A   Partly Cloudy
2:28 AM 64.4 °F - 64.4 °F 100% 29.77 in 0.5 mi Calm Calm - N/A Fog Fog
2:42 AM 64.4 °F - 64.4 °F 100% 29.78 in 0.5 mi West 3.5 mph - N/A Fog Fog
2:52 AM 64.0 °F - 64.0 °F 100% 29.76 in 0.2 mi Calm Calm - N/A Fog Fog
3:00 AM 64.4 °F - 64.4 °F 100% 29.78 in 0.8 mi WNW 3.5 mph - N/A   Clear
3:05 AM 62.6 °F - 62.6 °F 100% 29.78 in 2.0 mi WNW 4.6 mph - N/A   Clear
3:52 AM 63.0 °F - 63.0 °F 100% 29.78 in 2.5 mi Calm Calm - N/A   Clear
4:52 AM 64.0 °F - 64.0 °F 100% 29.77 in 1.5 mi West 3.5 mph - N/A   Clear
5:20 AM 64.4 °F - 64.4 °F 100% 29.79 in 2.5 mi Calm Calm - N/A   Partly Cloudy
5:37 AM 64.4 °F - 64.4 °F 100% 29.79 in 1.5 mi Calm Calm - N/A   Partly Cloudy
5:52 AM 64.9 °F - 64.0 °F 97% 29.78 in 1.8 mi Calm Calm - N/A   Clear
6:01 AM 66.2 °F - 64.4 °F 94% 29.79 in 2.0 mi Calm Calm - N/A   Clear
6:52 AM 69.1 °F - 68.0 °F 96% 29.79 in 3.0 mi Calm Calm - N/A   Clear
7:52 AM 75.0 °F - 71.1 °F 87% 29.78 in 9.0 mi West 4.6 mph - N/A   Clear
8:52 AM 78.1 °F - 73.0 °F 84% 29.79 in 10.0 mi WNW 10.4 mph - N/A   Clear
9:52 AM - - - N/A% 29.80 in - North - - N/A   Unknown
10:52 AM 82.9 °F 88.8 °F 73.0 °F 72% 29.78 in 10.0 mi WNW 12.7 mph - N/A   Unknown
11:52 AM 84.9 °F 90.7 °F 72.0 °F 65% 29.78 in 10.0 mi WNW 17.3 mph - N/A   Clear
12:52 PM 86.0 °F 91.5 °F 71.1 °F 61% 29.78 in 10.0 mi WNW 16.1 mph - N/A   Clear
1:52 PM 87.1 °F 92.8 °F 71.1 °F 59% 29.79 in 10.0 mi WNW 15.0 mph - N/A   Clear
2:52 PM 88.0 °F 92.9 °F 70.0 °F 55% 29.77 in 10.0 mi West 15.0 mph - N/A   Partly Cloudy
3:52 PM 87.1 °F 91.3 °F 69.1 °F 55% 29.75 in 10.0 mi West 16.1 mph - N/A   Scattered Clouds
4:52 PM 87.1 °F 91.3 °F 69.1 °F 55% 29.71 in 10.0 mi West 23.0 mph 29.9 mph N/A   Clear
5:52 PM 87.1 °F 90.6 °F 68.0 °F 53% 29.70 in 10.0 mi West 17.3 mph 27.6 mph N/A   Clear
6:52 PM 84.0 °F 84.9 °F 63.0 °F 49% 29.70 in 10.0 mi WNW 11.5 mph - N/A   Partly Cloudy
7:52 PM 80.1 °F 81.1 °F 61.0 °F 52% 29.71 in 10.0 mi WNW 12.7 mph - N/A   Clear
8:52 PM 75.0 °F - 63.0 °F 66% 29.72 in 10.0 mi WNW 8.1 mph - N/A   Clear
9:52 PM 71.1 °F - 64.0 °F 78% 29.74 in 10.0 mi West 8.1 mph - N/A   Clear
10:52 PM 69.1 °F - 64.0 °F 84% 29.72 in 10.0 mi West 8.1 mph - N/A   Clear
11:52 PM 70.0 °F - 63.0 °F 78% 29.73 in 10.0 mi WNW 9.2 mph - N/A   Clear